Regional Weather Roundup
Issued by NWS

Home | Current Version | Previous Version | Text Only | Print | Product List | Glossary Off
Versions: 1 2 3 4 5 6 7 8 9 10 11 12 13 14 15 16 17 18 19 20 21 22 23 24 25 26 27 28 29 30 31 32 33 34 35 36 37 38 39 40 41 42 43 44 45 46 47 48 49 50

000
ASUS43 KDTX 301010
RWRMI
MICHIGAN HOURLY REGIONAL WEATHER ROUNDUP
NATIONAL WEATHER SERVICE DETROIT/PONTIAC MI
600 AM EDT SAT AUG 30 2014

NOTE: "FAIR" INDICATES FEW OR NO CLOUDS BELOW 12,000 FEET WITH NO
SIGNIFICANT WEATHER AND/OR OBSTRUCTION TO VISIBILITY.

MIZ047>049-052>055-059>063-066>070-074>076-081>083-301100-
SOUTHEAST LOWER MICHIGAN

CITY           SKY/WX    TMP DP  RH WIND       PRES   REMARKS
ADRIAN         CLEAR     67  63  87 SW6       29.98S
ALMA           CLEAR     67  63  88 S3        29.90S
ANN ARBOR      PTCLDY    65  60  84 CALM      29.97F
BAD AXE        PTCLDY    67  64  90 S14G22    29.94F
CARO           PTCLDY    67  62  86 S3        29.92F
DETROIT CITY   MOCLDY    73  63  70 S7        29.97F
DETROIT        MOCLDY    68  62  81 CALM      29.97F
FLINT          PTCLDY    73  62  68 S9        29.94F
GROSSE ILE     MOCLDY    73  66  78 S13       29.96S
HILLSDALE      CLEAR     69  67  94 S6        29.97S
HOWELL         PTCLDY    69  63  81 S8        29.95S

CITY           SKY/WX    TMP DP  RH WIND       PRES   REMARKS
JACKSON        CLEAR     71  64  78 S8        29.95S
LAMBERTVILLE   PTCLDY    72  63  73 S5        29.98S
LANSING        CLEAR     70  63  78 S9        29.92F
LAPEER         FAIR      69  61  75 S8        29.95F
MASON          CLEAR     67  63  87 S6        29.94S
MT. CLEMENS    MOCLDY    68  64  87 S6        29.97S
PONTIAC        MOCLDY    69  61  75 S7        29.96F
PORT HOPE        N/A     68  60  75 S7        29.91F
PORT HURON     PTCLDY    66  63  88 S6        29.98S
TRI CITIES     PTCLDY    69  63  81 S9        29.91F
TROY           MOCLDY    72  63  73 S3        29.99S
SAGINAW HB     PTCLDY    68  64  88 S7        29.90F
$$
MIZ043>046-050>051-056>058-064>065-071>073-077>080-301100-
SOUTHWEST LOWER MICHIGAN

CITY           SKY/WX    TMP DP  RH WIND       PRES   REMARKS
BATTLE CREEK   PTCLDY    71  65  81 S10       29.92F
BENTON HARBOR  CLOUDY    74  67  78 S12G20    29.87S
BIG RAPIDS     MOCLDY    68  67  98 SE6       29.86F
COLDWATER      PTCLDY    71  66  84 S6        29.94S
FREMONT        PTSUNNY   71  67  88 S6        29.83F
HOLLAND        CLOUDY    74  68  81 S10       29.86F
GRAND RAPIDS   CLOUDY    73  71  93 S9        29.88F
IONIA          FAIR      70  66  86 S10       29.89S
KALAMAZOO      MOCLDY    72  66  81 S9        29.90F
LUDINGTON      CLOUDY    74  69  81 S9G18     29.81F
MARSHALL       PTCLDY    69  64  85 S6        29.92F
MOUNT PLEASANT CLEAR     67  64  87 S3        29.88F
MUSKEGON       CLOUDY    75  68  78 S15G22    29.83F
SOUTH HAVEN    CLOUDY    74  69  83 S8        29.87R
$$
MIZ016>042-301100-
NORTHERN LOWER MICHIGAN

CITY           SKY/WX    TMP DP  RH WIND       PRES   REMARKS
ALPENA         PTCLDY    64  62  93 S7        29.87F
BEAVER ISLAND  CLOUDY    70  68  93 SW5       29.80S
BELLAIRE       CLOUDY    71  66  83 CALM      29.81F
CADILLAC       MOCLDY    69  66  89 S10G16    29.86S
CHARLEVOIX     CLOUDY    73  68  84 S12       29.82F
FRANKFORT      CLOUDY    73  67  79 S8        29.80S
GAYLORD        CLOUDY    67  64  90 S9        29.86F
GRAYLING       CLOUDY    69  66  90 S7        29.88S
HARBOR SPRINGS CLOUDY    73  66  79 CALM      29.82F
HOUGHTON LAKE  PTCLDY    67  64  90 S10       29.89S
MANISTEE       CLOUDY    72  64  78 S5        29.82S
OSCODA         CLOUDY    67  62  83 S6        29.89S
PELLSTON       CLOUDY    69  66  90 SE5       29.82S
ROGERS CITY    MOCLDY    66  63  88 S12G20    29.85S
TRAVERSE CITY  MOCLDY    72  66  81 VRB3      29.80S
$$
MIZ007>008-015-301100-
EASTERN UPPER MICHIGAN

CITY           SKY/WX    TMP DP  RH WIND       PRES   REMARKS
KINROSS        CLOUDY    64  64 100 SE6       29.82S
MACKINAC ISLAN CLOUDY    66  66 100 SE5       29.81F
NEWBERRY       CLOUDY    68  67  98 SW8       29.80F FOG
S. S. MARIE    CLOUDY    65  63  93 E5        29.82S FOG
MUNISING         N/A     68  65  90 S5        29.78R
$$
MIZ004>006-011>014-085-301100-
CENTRAL UPPER MICHIGAN

CITY           SKY/WX    TMP DP  RH WIND       PRES   REMARKS
MANISTIQUE     RAIN      66  66  99 SW3       29.79S
ESCANABA       CLOUDY    66  63  88 NE5       29.77F
MENOMINEE      CLOUDY    66  64  94 NE5       29.75F
SAWYER-GWINN   LGT RAIN  63  62  97 CALM      29.79R VSB 1/2
$$
MIZ001>003-009>011-084-301100-
WESTERN UPPER MICHIGAN

CITY           SKY/WX    TMP DP  RH WIND       PRES   REMARKS
IRON MOUNTAIN  RAIN      64  63  96 SE6       29.77R FOG
HOUGHTON       CLOUDY    62  60  93 N6        29.76S
COPPER HARBOR    N/A     56  55  97 N5        29.77S
$$

ABBREVIATIONS USED IN REMARKS
   TC - TEMPERATURE IN CELSIUS
  WCI - WIND CHILL INDEX
   HX - HEAT INDEX
  VSB - VISIBILITY



USA.gov is the U.S. government's official web portal to all federal, state and local government web resources and services.